Location: Unspecified
(0.0000°N, 0.0000°E)
Time: 04:13:48
(UTC+02:00)

NATO 3D Rocket - Visible Passes

Search period start: 28 August 2015 00:00
Search period end: 07 September 2015 00:00
Orbit: 670 x 2296 km, 21.5° (Epoch: 26 August)

Date Brightness Start Highest point End Pass type
(mag) Time Alt. Az. Time Alt. Az. Time Alt. Az.
28 Aug 6.9 00:02:44 10° W 00:08:35 27° WSW 00:08:35 27° WSW visible
28 Aug 6.9 04:36:38 13° SE 04:36:38 13° SE 04:37:35 10° SE visible
28 Aug 5.6 06:32:10 19° SSW 06:36:54 31° SSE 06:42:41 10° ESE visible
28 Aug 5.6 20:58:03 10° WNW 21:09:10 83° SSW 21:19:27 23° ESE visible
28 Aug 6.2 23:03:44 10° W 23:14:59 47° SSW 23:14:59 47° SSW visible
29 Aug 5.9 05:38:32 29° S 05:38:57 29° S 05:45:32 10° ESE visible
29 Aug 4.6 07:36:00 10° WSW 07:44:02 56° SSE 07:49:41 10° E visible
29 Aug 6.0 22:05:19 10° W 22:17:06 55° SSW 22:21:23 43° SSE visible
30 Aug 7.2 00:12:50 10° WSW 00:16:55 21° WSW 00:16:55 21° WSW visible
30 Aug 6.5 04:44:55 21° SE 04:44:55 21° SE 04:48:08 10° ESE visible
30 Aug 5.1 06:40:27 20° SW 06:46:32 46° SSE 06:52:53 10° E visible
30 Aug 5.8 21:07:27 10° W 21:18:10 65° SSW 21:27:48 23° SE visible
30 Aug 6.5 23:13:43 10° WSW 23:23:19 37° SSW 23:23:19 37° SSW visible
31 Aug 5.5 05:46:51 37° S 05:48:38 40° SSE 05:55:51 10° E visible
31 Aug 5.5 20:10:04 10° WNW 20:19:33 76° SSW 20:32:50 10° ESE visible
31 Aug 6.2 22:15:11 10° W 22:26:20 43° SSW 22:29:43 38° SSE visible
01 Sep 7.4 00:23:01 10° WSW 00:25:15 15° SW 00:25:15 15° SW visible
01 Sep 6.1 04:53:16 31° SE 04:53:16 31° SE 04:58:31 10° ESE visible
01 Sep 4.7 06:48:48 20° WSW 06:55:56 69° SSE 07:02:41 10° ENE visible
01 Sep 6.0 21:17:11 10° W 21:27:22 49° SSW 21:36:07 22° SE visible
01 Sep 6.7 23:23:56 10° WSW 23:31:39 29° SSW 23:31:39 29° SSW visible
02 Sep 7.1 03:59:41 14° ESE 03:59:41 14° ESE 04:00:51 10° ESE visible
02 Sep 5.2 05:55:13 44° SSW 05:58:06 57° SSE 06:05:49 10° E visible
02 Sep 5.7 20:19:40 10° W 20:28:43 57° SSW 20:41:18 10° SE visible
02 Sep 6.4 22:25:21 10° WSW 22:35:47 35° S 22:38:01 33° S visible
03 Sep 7.6 00:33:07 10° SW 00:33:33 11° SW 00:33:33 11° SW visible
03 Sep 5.7 05:01:38 45° SE 05:01:38 45° SE 05:08:37 10° E visible
03 Sep 4.7 06:57:11 19° WSW 07:05:08 83° NNW 07:12:10 10° ENE visible
03 Sep 6.3 21:27:15 10° WSW 21:36:47 38° SSW 21:44:22 22° SE visible
03 Sep 6.9 23:34:11 10° WSW 23:39:53 24° SSW 23:39:53 24° SSW visible
04 Sep 6.8 04:08:04 22° ESE 04:08:04 22° ESE 04:11:02 10° E visible
04 Sep 4.9 06:03:36 47° SW 06:07:21 79° SSE 06:15:26 10° ENE visible
04 Sep 6.0 20:29:36 10° W 20:38:07 42° SSW 20:49:41 10° SE visible
04 Sep 6.6 22:35:40 10° WSW 22:45:27 29° S 22:46:13 29° S visible
05 Sep 5.3 05:10:02 64° SE 05:10:02 64° SE 05:18:23 10° ENE visible
05 Sep 5.0 07:05:34 16° W 07:14:13 58° NNW 07:21:22 10° NE visible
05 Sep 6.4 21:37:35 10° WSW 21:46:25 30° S 21:52:31 21° SSE visible
05 Sep 7.1 23:44:14 10° SW 23:48:03 19° SW 23:48:03 19° SW visible
06 Sep 6.5 04:16:27 31° E 04:16:27 31° E 04:20:57 10° E visible
06 Sep 5.0 06:11:59 43° W 06:16:24 76° NNW 06:24:46 10° ENE visible
06 Sep 6.3 20:39:51 10° WSW 20:47:43 32° S 20:58:05 10° SE visible
06 Sep 6.7 22:45:57 10° SW 22:54:20 26° S 22:54:20 26° S visible
